Regional Weather Roundup
Issued by NWS Cleveland, OH

Home | Current Version | Previous Version | Text Only | Print | Product List | Glossary Off
Versions: 1 2 3 4 5 6 7 8 9 10 11 12 13 14 15 16 17 18 19 20 21 22 23 24 25 26 27 28 29 30 31 32 33 34 35 36 37 38 39 40 41 42 43 44 45 46 47 48 49 50

000
ASUS41 KCLE 162312
RWRCLE
OHIO REGIONAL WEATHER ROUNDUP
NATIONAL WEATHER SERVICE WILMINGTON, OH
700 PM EDT MON OCT 16 2017

NOTE: "FAIR" INDICATES FEW OR NO CLOUDS BELOW 12,000 FEET WITH NO
SIGNIFICANT WEATHER AND/OR OBSTRUCTIONS TO VISIBILITY.

OHZ001>008-015>018-024>027-034-035-043-044-170000-
   NORTHWEST OHIO

CITY           SKY/WX    TMP DP  RH WIND       PRES   REMARKS
DEFIANCE       FAIR      52  40  63 CALM      30.26S
FINDLAY        CLOUDY    55  38  52 CALM      30.26S
TOLEDO EXPRESS FAIR      54  42  64 W3        30.26S
TOLEDO EXEC    FAIR      55  39  54 VRB3      30.27S
LIMA           FAIR      51  43  74 CALM      30.27S
$$

OHZ009>014-019>023-028>033-038-089-170000-
   NORTHEAST OHIO

CITY           SKY/WX    TMP DP  RH WIND       PRES   REMARKS
CLE-HOPKINS    FAIR      51  34  52 NW6       30.30R
CLE-LAKEFRONT  FAIR      52  32  46 NW3       30.28R
CUY CO. ARPT   CLEAR     50  32  50 W7        30.29R
LORAIN-ELYRIA  MOCLDY    48  35  60 CALM      30.28S
ASHTABULA      FAIR      49  34  56 W3        30.28R
AKRON-CANTON   FAIR      49  31  49 N7        30.27R
WOOSTER        FAIR      48  34  58 N6        30.28R
MANSFIELD      FAIR      51  36  56 CALM      30.27R
YOUNGSTOWN     FAIR      47  28  47 NW6       30.26R
$$

OHZ042-051>053-060>062-070>072-077>081-170000-
  SOUTHWEST OHIO

CITY           SKY/WX    TMP DP  RH WIND       PRES   REMARKS
CINC-COVINGTON FAIR      57  36  45 N5        30.28R
CINC-LUNKEN    FAIR      56  43  61 CALM      30.29S
HAMILTON       FAIR      54  41  61 N5        30.29S
DAYTON         FAIR      53  38  56 N5        30.29R
WRIGHT-PAT AFB PTCLDY    55  35  45 NW6       30.28R
DAYTON GENERAL MOCLDY    56  35  45 N7        30.27S
WILMINGTON     FAIR      54  37  52 NW6       30.28R
$$

OHZ036-037-039>041-045>050-054>059-063>069-073>076-082>088-170000-
  CENTRAL AND SOUTHEAST OHIO

CITY           SKY/WX    TMP DP  RH WIND       PRES   REMARKS
COLUMBUS       FAIR      54  37  52 NW7       30.27R
OSU AIRPORT    CLOUDY    53  39  59 NW3       30.27R
BOLTON FIELD   CLEAR     54  39  58 NW3       30.28R
RICKENBACK AFB FAIR      53  36  51 N5        30.27R
NEWARK         FAIR      50  37  61 NW5       30.27R
MARION         FAIR      52  36  54 NW3       30.28R
LANCASTER      FAIR      52  37  56 NW3       30.27S
ZANESVILLE     FAIR      52  37  56 NW3       30.26S
NEW PHILLY     FAIR      53  35  50 NW6       30.27R
$$




USA.gov is the U.S. government's official web portal to all federal, state and local government web resources and services.